Hourly Data Report for April 11, 2006

TORONTO CITY
ONTARIO

43°40'00.000" N
79°24'00.000" W
112.50 m
6158355
71508
XTO

Download Data

Hourly Data (April 2006)
Hourly Data Report for April 11, 2006
TIME
LST
Temp Definition
°C
Dew Point Definition
°C
Rel Hum Definition
%
Precip. Amount Definition
mm

Wind Dir Definition
10's deg

Wind Spd Definition
km/h
Visibility Definition
km
Stn Press Definition
kPa
Hmdx Definition


Wind Chill Definition


Weather Definition


00:00 10.4 2.2 57   LegendMM LegendMM   100.95     LegendNANA
01:00 8.2 1.8 64   LegendMM LegendMM   100.99     LegendNANA
02:00 7.0 1.6 68   LegendMM LegendMM   101.00     LegendNANA
03:00 6.7 1.6 70   LegendMM LegendMM   101.02     LegendNANA
04:00 7.0 2.3 72   LegendMM LegendMM   101.04     LegendNANA
05:00 7.7 2.0 67   LegendMM LegendMM   101.06     LegendNANA
06:00 7.6 2.4 70   LegendMM LegendMM   101.09     LegendNANA
07:00 8.6 2.9 67   LegendMM LegendMM   101.16     LegendNANA
08:00 10.0 2.8 61   LegendMM LegendMM   101.17     LegendNANA
09:00 11.4 3.9 60   LegendMM LegendMM   101.21     LegendNANA
10:00 11.6 2.2 52   LegendMM LegendMM   101.18     LegendNANA
11:00 11.8 1.2 48   LegendMM LegendMM   101.20     LegendNANA
12:00 12.8 0.0 41   LegendMM LegendMM   101.14     LegendNANA
13:00 13.3 -1.2 37   LegendMM LegendMM   101.11     LegendNANA
14:00 13.8 -1.0 36   LegendMM LegendMM   101.07     LegendNANA
15:00 15.0 -1.2 33   LegendMM LegendMM   100.95     LegendNANA
16:00 14.3 -1.3 34   LegendMM LegendMM   100.88     LegendNANA
17:00 13.7 -1.7 34   LegendMM LegendMM   100.84     LegendNANA
18:00 12.2 -1.5 39   LegendMM LegendMM   100.81     LegendNANA
19:00 10.4 -0.8 46   LegendMM LegendMM   100.79     LegendNANA
20:00 10.4 -0.6 46   LegendMM LegendMM   100.81     LegendNANA
21:00 10.6 -0.6 46   LegendMM LegendMM   100.78     LegendNANA
22:00 11.5 0.2 46   LegendMM LegendMM   100.76     LegendNANA
23:00 11.5 0.5 47   LegendMM LegendMM   100.74     LegendNANA

Notes on Data Quality.

Legend

  • E = Estimated
  • M = Missing
  • NA = Not Available*
  • [empty] = Indicates an unobserved value
Date modified: